This is the latest recevied weather packets stored in our database for station/object DL9TK-10. If no packets are shown the sender has not sent any weather packets the latest 10 day(s).
| Time | Temp. | Humidity | Pressure | Rain* | Wind** | Luminosity | Snow |
|---|---|---|---|---|---|---|---|
| 1778376693 | 15° C | 45% | 1016.7 hPa | - | - | - | - |
| 1778375793 | 15° C | 44% | 1016.7 hPa | - | - | - | - |
| 1778374893 | 15° C | 44% | 1016.8 hPa | - | - | - | - |
| 1778373993 | 15° C | 44% | 1017 hPa | - | - | - | - |
| 1778373093 | 15.56° C | 44% | 1017.2 hPa | - | - | - | - |
| 1778372193 | 15.56° C | 44% | 1017.5 hPa | - | - | - | - |
| 1778371293 | 15.56° C | 45% | 1017.5 hPa | - | - | - | - |
| 1778370393 | 15.56° C | 43% | 1017.8 hPa | - | - | - | - |
| 1778369493 | 16.11° C | 43% | 1017.9 hPa | - | - | - | - |
| 1778368593 | 16.11° C | 42% | 1018.1 hPa | - | - | - | - |
| 1778367693 | 16.11° C | 42% | 1018.3 hPa | - | - | - | - |
| 1778366793 | 16.11° C | 42% | 1018.4 hPa | - | - | - | - |
| 1778365892 | 16.11° C | 42% | 1018.7 hPa | - | - | - | - |
| 1778364992 | 16.11° C | 42% | 1018.7 hPa | - | - | - | - |
| 1778364092 | 16.67° C | 41% | 1018.8 hPa | - | - | - | - |
| 1778363192 | 16.67° C | 41% | 1019 hPa | - | - | - | - |
| 1778362292 | 16.67° C | 40% | 1019.1 hPa | - | - | - | - |
| 1778361392 | 17.22° C | 39% | 1019.1 hPa | - | - | - | - |
| 1778360492 | 17.22° C | 40% | 1019.1 hPa | - | - | - | - |
| 1778359592 | 17.22° C | 39% | 1019.4 hPa | - | - | - | - |
| 1778358692 | 17.22° C | 39% | 1019.4 hPa | - | - | - | - |
| 1778357792 | 17.78° C | 38% | 1019.4 hPa | - | - | - | - |
| 1778356892 | 17.78° C | 38% | 1019.3 hPa | - | - | - | - |
| 1778355992 | 18.33° C | 37% | 1019.2 hPa | - | - | - | - |
| 1778355092 | 19.44° C | 34% | 1019.1 hPa | - | - | - | - |
* Rain since midnight (hover to see other rain measurements)
** Current wind speed in m/s (hover to see current wind gust speed)